Stations météo

réclame
Mon MeteoGroup
Monte Terminillo, Italie (16219): Température de l'air & dewpoint: 14.11.2018 12:00:00 - 20.11.2018 12:00:00 (CET)Monte Terminillo, Italie (16219): Vitesse du vent: 14.11.2018 12:00:00 - 20.11.2018 12:00:00 (CET)Monte Terminillo, Italie (16219): Direction du vent: 14.11.2018 12:00:00 - 20.11.2018 12:00:00 (CET)Monte Terminillo, Italie (16219): Ensoleillement: 14.11.2018 12:00:00 - 20.11.2018 12:00:00 (CET)
Date & Time tt [°C] td [°C] ff [km/h] ff [knt] dd sd [min]
20.11.2018 12:00:00 2,6 2,6 0 0 N 0
20.11.2018 11:00:00 2,5 2,5 0 0 N 0
20.11.2018 10:00:00 2,3 2,3 0 0 N 0
20.11.2018 09:00:00 2,3 2,3 0 0 N 0
20.11.2018 08:00:00 2,4 2,4 0 0 N 1
20.11.2018 07:00:00 1,8 1,8 0 0 N 0
20.11.2018 06:00:00 2,7 2,7 0 0 N 0
20.11.2018 05:00:00 2,8 2,8 0 0 N 0
20.11.2018 04:00:00 2,7 2,7 0 0 N 0
20.11.2018 03:00:00 2,9 2,9 0 0 N 0
20.11.2018 02:00:00 2,7 2,7 0 0 N 0
20.11.2018 01:00:00 - - 0 0 N 0
20.11.2018 00:00:00 - - 0 0 N 0
19.11.2018 23:00:00 - - 0 0 N 0
19.11.2018 22:00:00 -0,2 -0,2 0 0 N 0
19.11.2018 21:00:00 -0,8 -0,8 0 0 N 0
19.11.2018 20:00:00 -1,7 -1,7 0 0 N 0
19.11.2018 19:00:00 -1,6 -1,6 0 0 N 0
19.11.2018 18:00:00 -1,5 -1,5 0 0 N 0
19.11.2018 17:00:00 -1,6 -1,6 0 0 N 0
19.11.2018 16:00:00 -2,0 -2,0 0 0 N 0
19.11.2018 15:00:00 -2,3 -2,4 0 0 N 0
19.11.2018 14:00:00 -2,5 -2,6 0 0 N 0
19.11.2018 13:00:00 -2,0 -2,1 0 0 N 0
19.11.2018 12:00:00 -1,6 -1,6 0 0 N 0
19.11.2018 11:00:00 -1,8 -1,9 0 0 N 0
19.11.2018 10:00:00 -2,4 -2,4 0 0 N 4
19.11.2018 09:00:00 -2,3 -2,3 0 0 N 0
19.11.2018 08:00:00 -2,5 -2,5 0 0 N 0
19.11.2018 07:00:00 -2,7 -2,7 0 0 N 0
19.11.2018 06:00:00 -2,8 -2,8 0 0 N 0
19.11.2018 05:00:00 -3,3 -3,6 0 0 N 0
19.11.2018 04:00:00 -3,0 -3,2 0 0 N 0
19.11.2018 03:00:00 -2,9 -3,0 0 0 N 0
19.11.2018 02:00:00 -3,0 -3,2 0 0 N 0
19.11.2018 01:00:00 -3,0 -3,2 0 0 N 0
19.11.2018 00:00:00 -3,0 -3,1 0 0 N 0
18.11.2018 23:00:00 -3,0 -3,2 0 0 N 0
18.11.2018 22:00:00 -3,0 -3,1 0 0 N 0
18.11.2018 21:00:00 -3,0 -3,0 0 0 N 0
18.11.2018 20:00:00 -3,2 -3,2 0 0 N 0
18.11.2018 19:00:00 -2,7 -2,7 0 0 N 0
18.11.2018 18:00:00 -2,6 -2,6 0 0 N 0
18.11.2018 17:00:00 -2,6 -2,6 0 0 N 0
18.11.2018 16:00:00 -2,6 -2,6 0 0 N 13
18.11.2018 15:00:00 -2,6 -2,6 0 0 N 5
18.11.2018 14:00:00 -3,5 -3,7 0 0 N 42
18.11.2018 13:00:00 -3,5 -3,7 0 0 N 60
18.11.2018 12:00:00 -3,6 -3,7 0 0 N 34
18.11.2018 11:00:00 -3,7 -3,9 0 0 N 51
18.11.2018 10:00:00 -3,7 -3,9 0 0 N 12
18.11.2018 09:00:00 -3,8 -4,0 0 0 N 13
18.11.2018 08:00:00 -3,6 -3,8 0 0 N 0
18.11.2018 07:00:00 -3,4 -3,6 0 0 N 0
18.11.2018 06:00:00 -3,2 -3,4 0 0 N 0
18.11.2018 05:00:00 -2,8 -2,9 0 0 N 0
18.11.2018 04:00:00 -2,8 -2,9 0 0 N 0
18.11.2018 03:00:00 -2,9 -3,1 0 0 N 0
18.11.2018 02:00:00 -3,0 -3,2 0 0 N 0
18.11.2018 01:00:00 -2,9 -3,1 0 0 N 0
18.11.2018 00:00:00 -3,1 -3,3 0 0 N 0
17.11.2018 23:00:00 -3,5 -3,6 0 0 N 0
17.11.2018 22:00:00 -3,7 -4,3 0 0 N 0
17.11.2018 21:00:00 -3,8 -4,0 0 0 N 0
17.11.2018 20:00:00 -3,9 -4,2 0 0 N 0
17.11.2018 19:00:00 -3,8 -4,1 0 0 N 0
17.11.2018 18:00:00 -3,3 -3,5 0 0 N 0
17.11.2018 17:00:00 -3,0 -3,1 0 0 N 37
17.11.2018 16:00:00 -3,1 -3,3 0 0 N 22
17.11.2018 15:00:00 -2,7 -3,9 0 0 N 4
17.11.2018 14:00:00 -2,6 -4,0 0 0 N 7
17.11.2018 13:00:00 -2,9 -4,1 0 0 N 18
17.11.2018 12:00:00 -3,0 -4,0 - - - -
17.11.2018 11:00:00 -3,8 -4,4 41 22 E 60
17.11.2018 10:00:00 -4,0 -4,0 39 21 E -
17.11.2018 09:00:00 -3,6 -3,8 41 22 E 0
17.11.2018 08:00:00 -3,3 -3,3 0 0 N 0
17.11.2018 07:00:00 -3,2 -3,7 0 0 N 0
17.11.2018 06:00:00 -3,2 -4,1 0 0 N 0
17.11.2018 05:00:00 -3,1 -3,8 0 0 N 0
17.11.2018 04:00:00 -3,0 -3,2 0 0 N 0
17.11.2018 03:00:00 -2,8 -3,0 0 0 N 0
17.11.2018 02:00:00 -2,9 -3,0 0 0 N 0
17.11.2018 01:00:00 -3,2 -3,6 0 0 N 0
17.11.2018 00:00:00 -2,7 -5,0 0 0 N 0
16.11.2018 23:00:00 -3,3 -5,4 0 0 N 0
16.11.2018 22:00:00 -3,3 -5,2 0 0 N 0
16.11.2018 21:00:00 -3,4 -4,8 0 0 N 0
16.11.2018 20:00:00 -2,9 -3,8 0 0 N 0
16.11.2018 19:00:00 -2,3 -4,2 0 0 N 0
16.11.2018 18:00:00 -1,7 -4,0 0 0 N 0
16.11.2018 17:00:00 -0,8 -3,4 0 0 N 38
16.11.2018 16:00:00 -0,1 -3,6 0 0 N 60
16.11.2018 15:00:00 -0,4 -3,1 0 0 N 60
16.11.2018 14:00:00 -0,7 -2,1 0 0 N 51
16.11.2018 13:00:00 0,1 -3,0 37 20 E 24
16.11.2018 12:00:00 -0,4 -2,5 37 20 E 44
16.11.2018 11:00:00 -1,0 -1,6 48 26 E 6
16.11.2018 10:00:00 -0,7 -0,7 42 23 E 0
16.11.2018 09:00:00 -0,6 -0,6 39 21 E 6
16.11.2018 08:00:00 -0,1 -0,1 35 19 E 0
16.11.2018 07:00:00 0,2 0,2 35 19 E 0
16.11.2018 06:00:00 0,3 0,3 31 17 E 0
16.11.2018 05:00:00 0,8 0,8 29 16 E 0
16.11.2018 04:00:00 1,0 0,2 24 13 E 0
16.11.2018 03:00:00 0,7 0,7 4 2 N 0
16.11.2018 02:00:00 0,9 0,9 22 12 E 0
16.11.2018 01:00:00 4,6 -4,4 16 9 E 0
16.11.2018 00:00:00 6,3 -14,0 24 13 E 0
15.11.2018 23:00:00 6,7 -16,1 8 4 SSE 0
15.11.2018 22:00:00 6,7 -19,9 4 2 N 0
15.11.2018 21:00:00 4,8 -13,0 4 2 N 0
15.11.2018 20:00:00 2,6 2,5 5 3 WNW 0
15.11.2018 19:00:00 2,7 2,5 8 4 SE 0
15.11.2018 18:00:00 3,6 2,1 13 7 ESE 0
15.11.2018 17:00:00 4,5 1,5 11 6 SE 29
15.11.2018 16:00:00 6,6 2,4 9 5 SE 60
15.11.2018 15:00:00 4,8 2,2 4 2 N 60
15.11.2018 14:00:00 7,3 2,2 5 3 ESE 60
15.11.2018 13:00:00 5,1 2,1 11 6 SE 60
15.11.2018 12:00:00 8,1 -6,9 5 3 SSE 60
15.11.2018 11:00:00 13,4 -6,3 15 8 ESE 60
15.11.2018 10:00:00 11,6 -5,7 9 5 ESE 55
15.11.2018 09:00:00 11,2 -6,0 4 2 N 37
15.11.2018 08:00:00 6,5 -5,3 9 5 NNW 23
15.11.2018 07:00:00 6,2 -8,7 13 7 N 0
15.11.2018 06:00:00 6,6 -8,7 9 5 NNW 0
15.11.2018 05:00:00 6,7 -7,6 4 2 N 0
15.11.2018 04:00:00 7,0 -5,6 13 7 NW 0
15.11.2018 03:00:00 7,0 -7,0 13 7 NW 0
15.11.2018 02:00:00 7,0 -6,7 9 5 NW 0
15.11.2018 01:00:00 7,2 -7,6 4 2 N 0
15.11.2018 00:00:00 7,1 -3,0 8 4 NW 0
14.11.2018 23:00:00 7,0 -3,8 8 4 W 0
14.11.2018 22:00:00 6,9 -3,7 5 3 W 0
14.11.2018 21:00:00 7,3 -6,1 4 2 N 0
14.11.2018 20:00:00 7,2 -1,4 5 3 NNW 0
14.11.2018 19:00:00 7,5 -0,4 8 4 NNW 0
14.11.2018 18:00:00 7,3 1,4 4 2 N 0
14.11.2018 17:00:00 9,5 1,7 4 2 N 40
14.11.2018 16:00:00 10,4 1,2 5 3 SE 60
14.11.2018 15:00:00 11,4 -0,9 4 2 N 60
14.11.2018 14:00:00 10,9 -3,0 4 2 N 60
14.11.2018 13:00:00 11,1 -5,1 4 2 N 60
14.11.2018 12:00:00 11,0 -6,3 4 2 N 60

tt = Température de l'air
td = dewpoint
ff = Vitesse du vent
dd = Direction du vent
sd = Ensoleillement

stations d'obs. à proximité